Home   Weather   Esfahãn   Past weeks

Flag for Iran Past Weather in Esfahãn, Iran — Yesterday and Last 2 Weeks

Now
30 °F

Clear.


Feels Like: 25 °F
Forecast: 29 / 60 °F
Wind: 5 mph from West

Location: Esfahan

Current Time: Feb 26, 2017 at 2:40:55 am

Latest Report: Feb 26, 2017 at 2:00 am


Visibility: 10 mi

Pressure: 30.18 "Hg (24.76 "Hg at 1576m altitude)

Humidity: 55%

Dew Point: 16 °F

Location of EsfahãnLocation

Past Weather in Esfahãn — Graph

°F

Esfahãn Temperature Yesterday

Maximum temperature yesterday: 59 °F (at 4:00 pm)
Minimum temperature yesterday: 23 °F (at 3:00 am)
Average temperature yesterday: 41 °F

High & Low Weather Summary for the Past Weeks

 TemperatureHumidityPressure
High61 °F (Feb 16, 12:30 pm)100% (Feb 13, 9:30 pm)30.45 "Hg (Feb 13, 9:30 pm)
Low12 °F (Feb 19, 5:00 am)3% (Feb 23, 5:00 am)29.71 "Hg (Feb 17, 2:30 pm)
Average39 °F52%30.08 "Hg
* Reported Feb 11 12:30 am — Feb 26 1:00 am, Esfahãn, Weather by CustomWeather, © 2017

Note: Actual official high and low records may vary slightly from our data, if they occured in-between our weather recording intervals... More about our weather records

Advertising

Esfahãn Weather History for the Previous 24 Hours

Scroll right to see more
 ConditionsComfort  
Time TempWeatherWind HumidityBarometerVisibility
1:00 am
Sun, Feb 26
34 °FClear.5 mph51%30.18 "Hg10 mi
12:30 am32 °FClear.7 mph51%30.18 "Hg10 mi
12:00 am34 °FClear.5 mph48%30.18 "Hg10 mi
11:30 pm
Sat, Feb 25
34 °FClear.5 mph56%30.21 "Hg10 mi
11:00 pm32 °FClear.5 mph44%30.21 "Hg10 mi
10:30 pm37 °FClear.5 mph48%30.21 "Hg10 mi
10:00 pm39 °FClear.7 mph45%30.21 "Hg10 mi
9:30 pm39 °FClear.7 mph45%30.21 "Hg10 mi
9:00 pm41 °FClear.5 mph42%30.21 "Hg10 mi
8:30 pm45 °FClear.5 mph37%30.21 "Hg10 mi
8:00 pm46 °FClear.5 mph37%30.21 "Hg10 mi
7:30 pm46 °FClear.5 mph34%30.21 "Hg10 mi
7:00 pm50 °FClear.5 mph32%30.21 "Hg10 mi
6:30 pm52 °FClear.5 mph35%30.21 "Hg10 mi
6:00 pm55 °FSunny.5 mph33%30.21 "Hg10 mi
5:30 pm57 °FSunny.5 mph31%30.21 "Hg10 mi
5:00 pm57 °FPassing clouds.5 mph31%30.21 "HgN/A
4:30 pm57 °FPassing clouds.7 mph31%30.21 "HgN/A
4:00 pm59 °FPassing clouds.12 mph29%30.21 "HgN/A
3:30 pm57 °FPassing clouds.12 mph31%30.21 "HgN/A
3:00 pm57 °FPassing clouds.9 mph31%30.21 "HgN/A
2:30 pm57 °FPassing clouds.9 mph31%30.24 "Hg5 mi
2:00 pm57 °FClear.9 mph31%30.24 "Hg5 mi
1:30 pm57 °FClear.9 mph31%30.24 "Hg4 mi
1:00 pm57 °FClear.7 mph33%30.27 "Hg4 mi
12:30 pm55 °FClear.5 mph33%30.30 "Hg5 mi
12:00 pm54 °FClear.9 mph35%30.30 "Hg5 mi
11:30 am52 °FClear.No wind32%30.33 "Hg5 mi
11:00 am50 °FClear.5 mph35%30.33 "Hg5 mi
10:30 am48 °FClear.No wind34%30.33 "Hg5 mi
10:00 am45 °FClear.7 mph39%30.36 "Hg5 mi
9:30 am43 °FClear.7 mph39%30.36 "Hg5 mi
9:00 am39 °FClear.9 mph42%30.36 "Hg5 mi
8:30 am36 °FClear.7 mph48%30.33 "Hg4 mi
8:00 am32 °FClear.5 mph55%30.33 "Hg4 mi
7:30 am25 °FClear.5 mph74%30.33 "Hg4 mi
7:00 am25 °FClear.5 mph69%30.33 "Hg4 mi
6:30 am23 °FClear.No wind74%30.30 "Hg4 mi
6:00 am27 °FClear.No wind80%30.30 "Hg5 mi
5:30 am27 °FClear.5 mph74%30.30 "Hg5 mi
5:00 am25 °FClear.5 mph74%30.30 "Hg5 mi
4:30 am25 °FClear.5 mph74%30.30 "Hg5 mi
4:00 am25 °FClear.5 mph74%30.27 "Hg5 mi
3:30 am25 °FClear.5 mph74%30.27 "Hg5 mi
3:00 am23 °FClear.5 mph74%30.27 "Hg5 mi
2:30 am27 °FClear.No wind74%30.30 "Hg5 mi
2:00 am27 °FClear.5 mph74%30.30 "Hg5 mi
Weather by CustomWeather, © 2017

See weather overviewHow to use our weather pages